When you browse on this site, cookies collect data to enhance your experience and personalize the content and advertising you see.
Visit our Privacy Policy to learn more. By continuing to use the site, you agree to this use of cookies and data.
  • In Switzerland
  • List of Countries
  • For 7 days
  • Water Temperature
  • Satellite Maps
  • Weather Map
  • Weather Widgets
  • user-avatar
    Login

    Hourly Weather Tuzla

    Today, 24 January, Thursday

    Time Temperature Precipitation Wind Pressure Humidity
    00:00 0°C° 0.1 mm 1 mps 707 mmHg 97%
    01:00 0°C° 0 mm 1 mps 707 mmHg 97%
    02:00 -1°C° 0.3 mm 1 mps 707 mmHg 97%
    03:00 -1°C° 0.3 mm 1 mps 707 mmHg 97%
    04:00 -1°C° 0.3 mm 1 mps 707 mmHg 97%
    05:00 -1°C° 0.5 mm 1 mps 707 mmHg 97%
    06:00 -1°C° 0.5 mm 1 mps 707 mmHg 97%
    07:00 -1°C° 0.5 mm 1 mps 708 mmHg 96%
    08:00 -1°C° 0.2 mm 1 mps 708 mmHg 95%
    09:00 -1°C° 0.2 mm 1 mps 708 mmHg 94%
    10:00 0°C° 0.2 mm 1 mps 709 mmHg 93%
    11:00 0°C° 0.1 mm 1 mps 709 mmHg 93%
    12:00 0°C° 0.1 mm 1 mps 709 mmHg 92%
    13:00 -1°C° 0.1 mm 2 mps 709 mmHg 92%
    14:00 +1°C° 0.1 mm 1 mps 709 mmHg 93%
    15:00 0°C° 0.1 mm 1 mps 710 mmHg 94%
    16:00 0°C° 0.1 mm 1 mps 710 mmHg 94%
    17:00 0°C° 0.1 mm 1 mps 710 mmHg 95%
    18:00 0°C° 0.1 mm 1 mps 711 mmHg 96%
    19:00 -1°C° 0.1 mm 1 mps 711 mmHg 97%
    20:00 -1°C° 0.1 mm 1 mps 711 mmHg 97%
    21:00 -1°C° 0.1 mm 1 mps 712 mmHg 97%
    22:00 -1°C° 0.1 mm 1 mps 712 mmHg 97%
    23:00 -1°C° 0.1 mm 1 mps 712 mmHg 97%

    Tomorrow, 25 January, Friday

    Time Temperature Precipitation Wind Pressure Humidity
    00:00 -1°C° 0.1 mm 1 mps 712 mmHg 97%
    01:00 -1°C° 0.1 mm 1 mps 712 mmHg 97%
    02:00 -1°C° 0.1 mm 1 mps 712 mmHg 97%
    03:00 -1°C° 0.1 mm 1 mps 712 mmHg 97%
    04:00 -4°C° 0.1 mm 2 mps 711 mmHg 97%
    05:00 -4°C° 0.2 mm 2 mps 712 mmHg 97%
    06:00 -4°C° 0.2 mm 2 mps 712 mmHg 97%
    07:00 -4°C° 0.2 mm 2 mps 712 mmHg 96%
    08:00 -4°C° 0.6 mm 2 mps 712 mmHg 96%
    09:00 -4°C° 0.6 mm 2 mps 712 mmHg 96%
    10:00 -5°C° 0.6 mm 2 mps 712 mmHg 95%
    11:00 -4°C° 0.4 mm 2 mps 713 mmHg 95%
    12:00 -4°C° 0.4 mm 2 mps 713 mmHg 94%
    13:00 -4°C° 0.4 mm 2 mps 713 mmHg 94%
    14:00 -4°C° 0.3 mm 2 mps 713 mmHg 94%
    15:00 -4°C° 0.3 mm 2 mps 713 mmHg 95%
    16:00 -5°C° 0.3 mm 3 mps 713 mmHg 96%
    17:00 -6°C° 0.7 mm 3 mps 713 mmHg 96%
    18:00 -6°C° 0.7 mm 3 mps 713 mmHg 96%
    19:00 -6°C° 0.7 mm 3 mps 714 mmHg 97%
    20:00 -6°C° 0.9 mm 3 mps 714 mmHg 96%
    21:00 -6°C° 0.9 mm 3 mps 714 mmHg 96%
    22:00 -6°C° 0.9 mm 3 mps 715 mmHg 96%
    23:00 -6°C° 0.6 mm 3 mps 715 mmHg 96%

    Day after tomorrow, 26 January, Saturday

    Time Temperature Precipitation Wind Pressure Humidity
    00:00 -7°C° 0.6 mm 3 mps 715 mmHg 96%
    01:00 -7°C° 0.6 mm 3 mps 715 mmHg 96%
    02:00 -7°C° 0.5 mm 3 mps 715 mmHg 96%
    03:00 -7°C° 0.5 mm 3 mps 716 mmHg 96%
    04:00 -7°C° 0.5 mm 3 mps 716 mmHg 96%
    05:00 -7°C° 0.5 mm 3 mps 716 mmHg 96%
    06:00 -6°C° 0.5 mm 2 mps 717 mmHg 96%
    07:00 -6°C° 0.5 mm 2 mps 717 mmHg 96%
    08:00 -6°C° 0.2 mm 2 mps 718 mmHg 94%
    09:00 -5°C° 0.2 mm 2 mps 718 mmHg 93%
    10:00 -3°C° 0.2 mm 1 mps 718 mmHg 91%
    11:00 -2°C° 0 mm 1 mps 718 mmHg 89%
    12:00 -1°C° 0 mm 1 mps 718 mmHg 88%
    13:00 0°C° 0 mm 1 mps 718 mmHg 86%
    14:00 0°C° 0 mm 1 mps 718 mmHg 86%
    15:00 -2°C° 0 mm 0 mps 718 mmHg 87%
    16:00 -2°C° 0 mm 0 mps 717 mmHg 88%
    17:00 -2°C° 0 mm 1 mps 717 mmHg 87%
    18:00 -2°C° 0 mm 1 mps 717 mmHg 86%
    19:00 -5°C° 0 mm 2 mps 717 mmHg 85%
    20:00 -5°C° 0 mm 2 mps 717 mmHg 83%
    21:00 -5°C° 0 mm 2 mps 717 mmHg 82%
    22:00 -4°C° 0 mm 2 mps 717 mmHg 81%
    23:00 -4°C° 0 mm 2 mps 717 mmHg 80%

    27 January, Sunday

    Time Temperature Precipitation Wind Pressure Humidity
    00:00 -3°C° 0 mm 2 mps 717 mmHg 79%
    01:00 -2°C° 0 mm 2 mps 717 mmHg 79%
    02:00 -2°C° 0 mm 2 mps 717 mmHg 80%
    03:00 -2°C° 0 mm 2 mps 716 mmHg 81%
    04:00 -2°C° 0 mm 2 mps 716 mmHg 82%
    05:00 -2°C° 0 mm 2 mps 716 mmHg 83%
    06:00 -2°C° 0 mm 2 mps 716 mmHg 84%
    07:00 -1°C° 0 mm 2 mps 715 mmHg 85%
    08:00 +1°C° 0 mm 2 mps 715 mmHg 89%
    09:00 +2°C° 0 mm 2 mps 715 mmHg 93%
    10:00 +3°C° 0 mm 2 mps 715 mmHg 97%
    11:00 +4°C° 0 mm 2 mps 714 mmHg 98%
    12:00 +5°C° 0 mm 2 mps 714 mmHg 98%
    13:00 +5°C° 0 mm 2 mps 713 mmHg 99%
    14:00 +5°C° 0 mm 2 mps 713 mmHg 99%
    15:00 +4°C° 0 mm 2 mps 712 mmHg 99%
    16:00 +2°C° 0 mm 3 mps 712 mmHg 99%
    17:00 +3°C° 0 mm 2 mps 712 mmHg 96%
    18:00 +2°C° 0 mm 2 mps 712 mmHg 93%
    19:00 +1°C° 0 mm 2 mps 712 mmHg 90%
    20:00 +1°C° 0 mm 2 mps 712 mmHg 89%
    21:00 +1°C° 0 mm 2 mps 712 mmHg 88%
    22:00 -1°C° 0 mm 2 mps 711 mmHg 87%
    23:00 +1°C° 0 mm 2 mps 711 mmHg 87%

    28 January, Monday

    Time Temperature Precipitation Wind Pressure Humidity
    00:00 0°C° 0 mm 3 mps 711 mmHg 87%
    01:00 +1°C° 0 mm 3 mps 711 mmHg 88%
    02:00 +1°C° 0 mm 3 mps 710 mmHg 88%
    03:00 +1°C° 0 mm 3 mps 710 mmHg 87%
    04:00 +2°C° 0 mm 3 mps 709 mmHg 87%
    05:00 +2°C° 0 mm 3 mps 709 mmHg 87%
    06:00 +2°C° 0 mm 3 mps 708 mmHg 87%
    07:00 +3°C° 0 mm 4 mps 708 mmHg 87%
    08:00 +3°C° 0 mm 4 mps 708 mmHg 88%
    09:00 +4°C° 0 mm 4 mps 707 mmHg 89%
    10:00 +5°C° 0 mm 5 mps 707 mmHg 90%
    11:00 +5°C° 0 mm 4 mps 707 mmHg 90%
    12:00 +6°C° 0 mm 4 mps 707 mmHg 89%
    13:00 +6°C° 0 mm 4 mps 707 mmHg 88%
    14:00 +5°C° 1.3 mm 3 mps 707 mmHg 91%
    15:00 +5°C° 1.3 mm 2 mps 707 mmHg 94%
    16:00 +5°C° 1.3 mm 1 mps 707 mmHg 97%
    17:00 +5°C° 1.4 mm 1 mps 707 mmHg 95%
    18:00 +3°C° 1.4 mm 2 mps 708 mmHg 93%
    19:00 +3°C° 1.4 mm 2 mps 708 mmHg 91%
    20:00 +3°C° 0.3 mm 2 mps 709 mmHg 89%
    21:00 +3°C° 0.3 mm 2 mps 709 mmHg 88%
    22:00 +3°C° 0.3 mm 2 mps 710 mmHg 86%
    23:00 +3°C° 0.4 mm 2 mps 710 mmHg 87%

    29 January, Tuesday

    Time Temperature Precipitation Wind Pressure Humidity
    00:00 +4°C° 0.4 mm 1 mps 710 mmHg 88%
    01:00 +4°C° 0.4 mm 1 mps 711 mmHg 89%
    02:00 +3°C° 0.1 mm 1 mps 711 mmHg 90%
    03:00 +3°C° 0.1 mm 1 mps 711 mmHg 90%
    04:00 +2°C° 0.1 mm 1 mps 711 mmHg 91%
    05:00 +1°C° 0.1 mm 0 mps 711 mmHg 92%
    06:00 +1°C° 0.1 mm 0 mps 712 mmHg 92%
    07:00 +1°C° 0.1 mm 0 mps 712 mmHg 93%
    08:00 +2°C° 0.4 mm 1 mps 713 mmHg 94%
    09:00 +3°C° 0.4 mm 1 mps 714 mmHg 96%
    10:00 +3°C° 0.4 mm 1 mps 715 mmHg 97%
    11:00 +2°C° 1.2 mm 2 mps 715 mmHg 96%
    12:00 +1°C° 1.2 mm 2 mps 715 mmHg 95%
    13:00 -1°C° 1.2 mm 3 mps 715 mmHg 95%
    14:00 -1°C° 0.1 mm 2 mps 716 mmHg 94%
    15:00 -1°C° 0.1 mm 2 mps 716 mmHg 93%
    16:00 +1°C° 0.1 mm 1 mps 716 mmHg 92%
    17:00 0°C° 0 mm 1 mps 716 mmHg 93%
    18:00 0°C° 0 mm 1 mps 716 mmHg 94%
    19:00 -2°C° 0 mm 0 mps 717 mmHg 95%
    20:00 -2°C° 0 mm 0 mps 717 mmHg 95%
    21:00 -2°C° 0 mm 0 mps 717 mmHg 95%
    22:00 -2°C° 0 mm 0 mps 717 mmHg 94%
    23:00 -2°C° 0 mm 0 mps 717 mmHg 95%
    Show more